User: anonymous   Login
Location: *
(37.5724°S, 58.0067°E)
Time: 10:45:47
(UTC+00:00)
Language:

SME Rocket - Orbit

View from above orbital plane
View from above orbital plane
View from above satellite
View from above satellite

Ground track
Ground track

The orbit data is extracted from the following two-line orbital elements,

1 12889U 81100C   20329.88307285 +.00000093 +00000-0 +61873-4 0  9996
2 12889 099.8779 193.0759 1316830 038.4751 338.5259 12.18040760733998
Epoch (UTC): 24 November 2020 21:11:37
Eccentricity: 0.1316830
inclination: 99.8779°
perigee height: 550 km
apogee height: 2652 km
right ascension of ascending node: 193.0759°
argument of perigee: 38.4751°
revolutions per day: 12.18040760
mean anomaly at epoch: 338.5259°
orbit number at epoch: 73399

The dashed part of the orbit path shows where the satellite is in the earth's shadow,  

DLR